Location: Waco, TX
(31.5480°N, 97.1670°W)
Time: 21:42:11
(UTC-06:00)

ISS - Pass Details

Date: 20 February 2019
Orbit: 403 x 411 km, 51.6° (Epoch: 22 February)

Event Time Altitude Azimuth Distance (km) Brightness Sun altitude
Rises 06:34:33 0° 208° (SSW) 2,301 -0.2 -7.3°
Reaches altitude 10° 06:36:43 10° 199° (SSW) 1,445 -1.1 -6.9°
Maximum altitude 06:39:44 36° 130° (SE) 648 -2.1 -6.2°
Drops below altitude 10° 06:42:45 10° 62° (ENE) 1,453 -0.1 -5.6°
Sets 06:44:55 0° 54° (NE) 2,315 0.7 -5.2°
